Tracking 29892 objects as of 21-Nov-2024
HD Live streaming from Space Station
objects crossing your sky now

STARLINK-3338

Track STARLINK-3338 now!
10-day predictions
STARLINK-3338 is classified as:


NORAD ID: 50812
Int'l Code: 2022-001K
Perigee: 546.0 km
Apogee: 547.7 km
Inclination: 53.2 °
Period: 95.4 minutes
Semi major axis: 6917 km
RCS: Unknown
Launch date: January 6, 2022
Source: United States (US)
Launch site: AIR FORCE EASTERN TEST RANGE (AFETR)
Your satellite tracking list
Your tracking list is empty




NASA's NSSDC Master Catalog

Two Line Element Set (TLE):
1 50812U 22001K   24325.82218778  .00000528  00000-0  51239-4 0  9999
2 50812  53.2158 126.4988 0001253  91.4024 268.7112 15.08841038160250
Source of the keplerian elements: AFSPC